{"data":{"norad_id":66218,"epoch":"2026-09-20T19:24:09.694656Z","epoch_age_seconds":70060,"freshness":"FRESH","line1":"1 66218U 25244N   26263.80844554  .00018452  00000+0  55620-3 0  9997","line2":"2 66218  53.1584  40.0207 0000959 107.2728 252.8380 15.34382739 51586","mean_motion":15.34382739,"eccentricity":9.59e-5,"inclination_deg":53.1584,"raan_deg":40.0207,"arg_perigee_deg":107.2728,"mean_anomaly_deg":252.838,"bstar":0.0005562,"rev_number":5158,"period_min":93.848813819327,"perigee_km":462.09850251857,"apogee_km":463.41058551671,"semimajor_km":6840.8915440176,"source":"CELESTRAK","updated_at":"2026-09-21T09:00:35.842056Z"}}